Location: Culleoka
(33.1312°N, 96.4919°W)
Time: 15:47:33
(UTC+00:00)

H-2A R/B - Pass Details

Date: 03 July 2022
Orbit: 576 x 652 km, 98.5° (Epoch: 14 August)

Event Time Altitude Azimuth Distance (km) Brightness Sun altitude
Rises 03:10:20 0° 2° (N) 2,939 6.1 -16.4°
Reaches altitude 10° 03:12:38 10° 355° (N) 2,037 5.4 -16.8°
Maximum altitude 03:16:44 38° 288° (WNW) 991 3.6 -17.4°
Drops below altitude 10° 03:20:52 10° 220° (SW) 2,048 4.7 -18.0°
Sets 03:23:11 0° 212° (SSW) 2,957 5.4 -18.4°
